AirNav   ATP
 
 1124 users online  

3VA0 Ayres-Aicp Airport
Warrenton, Virginia, USA

GOING TO WARRENTON?


FAA INFORMATION EFFECTIVE 26 APRIL 2018

Location

FAA Identifier: 3VA0
Lat/Long: 38-46-33.4170N / 077-54-37.9810W
38-46.556950N / 077-54.633017W
38.7759492 / -77.9105503
(estimated)
Elevation: 530 ft. / 162 m (estimated)
Variation: 09W (1985)
From city: 6 miles NW of WARRENTON, VA
Time zone: UTC -4 (UTC -5 during Standard Time)
Zip code: 20115

Airport Operations

Airport use: Private use. Permission required prior to landing
Activation date: 11/1973
Control tower: no
ARTCC: WASHINGTON CENTER
FSS: LEESBURG FLIGHT SERVICE STATION
Attendance: UNATNDD
Wind indicator: no
Segmented circle: no

Airport Communications

WX AWOS-3 at HWY (15 nm SE): 120.350 (540-788-4078)
WX AWOS-3 at CJR (15 nm S): 119.325 (540-727-0523)
WX AWOS-3 at FRR (18 nm NW): 121.85 (540-635-5377)
WX AWOS-3PT at HEF (19 nm E): PHONE 703-361-6160

Nearby radio navigation aids

VOR radial/distance  VOR name  Freq  Var
CSNr351/8.4CASANOVA VORTAC116.3006W
LDNr115/14.6LINDEN VORTAC114.3006W
AMLr253/22.8ARMEL VOR/DME113.5008W
MRBr192/36.7MARTINSBURG VORTAC112.1007W
BRVr324/37.2BROOKE VORTAC114.5009W

 
NDB name  Hdg/Dist  Freq  Var  ID
GOODWIN LAKE207/11.322708WGDX --. -.. -..-
NAILR009/19.335110WMSQ -- ... --.-
CAVERNS089/26.724509WLUA .-.. ..- .-
SHANNON335/37.423710WEZF . --.. ..-.
GEORGETOWN265/37.932309WGTN --. - -.
DAVEE289/38.122309WDAA -.. .- .-

Airport Services

Airframe service: NONE
Powerplant service: NONE

Runway Information

Runway 18/36

Dimensions: 1200 x 50 ft. / 366 x 15 m
Surface: turf
RUNWAY 18  RUNWAY 36
Traffic pattern: leftleft
Obstructions: treesfence

Airport Ownership and Management from official FAA records

Ownership: Privately-owned
Owner: HENRY AYRES
9652 CONDE RD
MARSHALL, VA 22115
Phone 703-364-1313
Manager: HENRY AYRES
9652 CONDE RD
MARSHALL, VA 22115
Phone 703-364-1313

Airport Operational Statistics

Aircraft based on the field: 1
Single engine airplanes: 1
    

Instrument Procedures

There are no published instrument procedures at 3VA0.

Some nearby airports with instrument procedures:

2VG2 - Upperville Airport (12 nm N)
KHWY - Warrenton-Fauquier Airport (15 nm SE)
KCJR - Culpeper Regional Airport (15 nm S)
KFRR - Front Royal-Warren County Airport (18 nm NW)
KHEF - Manassas Regional Airport/Harry P. Davis Field (19 nm E)
 
Loc | Ops | Rwys | IFR | FBO | Links
Com | Nav | Svcs | Stats | Notes

AirNav Hotels Sweepstakes
 
Area around 3VA0 (Ayres-Aicp Airport)
 
Road maps at: MapQuest Bing Google
 
Aerial photo
No photo
 
Sectional chart

 
Airport distance calculator
Flying to Ayres-Aicp Airport? Find the distance to fly.

From to 3VA0

Sunrise and sunset
Times for 21-May-2018
 Local
(UTC-4)
 Zulu
(UTC)
Morning civil twilight05:2509:25
Sunrise05:5609:56
Sunset20:2100:21
Evening civil twilight20:5100:51

Current date and time
Zulu (UTC)  21-May-2018 23:11:46
Local (UTC-4)  21-May-2018 19:11:46
 
METAR
KHWY 
15nm SE 
212255Z AUTO 12006KT 10SM BKN049 25/17 A3012 RMK AO2 T02490165
KFRR 
18nm NW 
212255Z AUTO 00000KT 10SM SCT046 24/19 A3011 RMK AO1
KCJR 
19nm SW 
212255Z AUTO 00000KT 10SM BKN050 26/18 A3013 RMK AO2 T02560183
KHEF 
19nm E 
212256Z 16007KT 10SM CLR 24/19 A3013 RMK AO2 SLP210 T02440189 PNO $
KIAD 
24nm NE 
212252Z 17007KT 10SM BKN050 BKN080 BKN230 24/18 A3012 RMK AO2 SLP198 T02440183
KJYO 
24nm NE 
212255Z AUTO 18007KT 10SM SCT045 OVC060 26/18 A3013 RMK AO2
KOKV 
24nm NW 
212255Z AUTO 12005KT 10SM BKN040 BKN048 23/18 A3013 RMK AO2
KLUA 
28nm W 
212255Z AUTO 00000KT 10SM BKN041 BKN048 OVC060 25/18 A3012 RMK AO2 LTG DSNT SW
TAF
KIAD 
24nm NE 
212058Z 2121/2224 14005KT P6SM SCT060 SCT200 FM220800 16004KT P6SM VCSH OVC015 FM221100 16004KT P6SM VCSH OVC010 FM221400 17004KT P6SM VCSH BKN025 BKN200 FM221800 19005KT P6SM -SHRA BKN050 BKN200
NOTAMs
Click for the latest NOTAMs
NOTAMs are issued by the DoD/FAA and will open in a separate window not controlled by AirNav.

 

 
 

Would you like to see your business listed on this page?

 If your business provides an interesting product or service to pilots, flight crews, aircraft, or users of the Ayres-Aicp Airport, you should consider listing it here.  To start the listing process, click on the button below
 
Add a business
 

Other Pages about Ayres-Aicp Airport

Update a link
 
Copyright © AirNav, LLC. All rights reserved. Privacy Policy  Contact